Weather History for San Angelo, TX

Change the Weather History Date:

Monday, December 30, 2013

  Actual Average Record
Temperature  
Mean Temperature 40 °F 46 °F  
Max Temperature 56 °F 59 °F 90 °F (1919)
Min Temperature 24 °F 33 °F 4 °F (1983)
Degree Days  
Heating Degree Days 25 19  
Month to date heating degree days 600 544  
Since 1 July heating degree days 1076 944  
Cooling Degree Days 0 0  
Month to date cooling degree days 3 0  
Year to date cooling degree days 2863 2502  
Moisture  
Dew Point 24 °F    
Average Humidity 57    
Maximum Humidity 81    
Minimum Humidity 32    
Precipitation  
Precipitation 0.00 in 0.03 in 1.45 in (1984)
Month to date precipitation 1.15 0.82  
Year to date precipitation 19.80 21.22  
Snow  
Snow 0.00 in 0.00 in 1.00 in (1958)
Month to date snowfall 1.5 0.3  
Since 1 July snowfall 1.5 0.6  
Snow Depth 0.00 in    
Sea Level Pressure  
Sea Level Pressure 30.31 in    
Wind  
Wind Speed 3 mph (West)    
Max Wind Speed 9 mph    
Max Gust Speed 13 mph    
Visibility 10 miles    
Events      
T = Trace of Precipitation, MM = Missing Value Source: NWS Daily Summary

Daily Weather History Graph

Daily Weather History Graph

Search for Another Location

Airport:

Trip Planner

Search our weather history database for the weather conditions in past years. The results will help you decide how hot, cold, wet, or windy it might be!

Date:

Astronomy

Dec. 30, 2013 Rise Set
Actual Time 7:40 AM CST 5:48 PM CST
Civil Twilight 7:13 AM CST 6:15 PM CST
Nautical Twilight 6:43 AM CST 6:45 PM CST
Astronomical Twilight 6:13 AM CST 7:15 PM CST
Moon 5:35 AM CST (12/30) 4:21 PM CST (12/30)
Length of Visible Light 11h 01m
Length of Day
10h 08m
Waning Crescent, 4% of the Moon is Illuminated
Dec 30
Waning Crescent
Jan 1
New
Jan 7
First Quarter
Jan 15
Full
Jan 23
Last Quarter

Hourly Weather History & Observations

Time (CST) Temp. Windchill Dew Point Humidity Pressure Visibility Wind Dir Wind Speed Gust Speed Precip Events Conditions
12:51 AM 30.9 °F 26.2 °F 19.0 °F 61% 30.33 in 10.0 mi NW 4.6 mph - N/A   Overcast
1:51 AM 30.9 °F 25.2 °F 19.9 °F 64% 30.32 in 10.0 mi NW 5.8 mph - N/A   Overcast
2:51 AM 30.0 °F 24.1 °F 19.9 °F 66% 30.31 in 10.0 mi NW 5.8 mph - N/A   Overcast
3:51 AM 30.0 °F 25.2 °F 21.0 °F 69% 30.30 in 10.0 mi WNW 4.6 mph - N/A   Overcast
4:03 AM 30.2 °F 25.4 °F 19.4 °F 64% 30.25 in 10.0 mi West 4.6 mph - N/A   Overcast
4:24 AM 28.4 °F 24.6 °F 21.2 °F 74% 30.25 in 10.0 mi WSW 3.5 mph - N/A   Scattered Clouds
4:51 AM 27.0 °F 21.6 °F 21.0 °F 78% 30.29 in 10.0 mi West 4.6 mph - N/A   Clear
5:51 AM 26.1 °F 21.9 °F 19.9 °F 78% 30.29 in 10.0 mi West 3.5 mph - N/A   Clear
6:51 AM 25.0 °F 20.7 °F 19.9 °F 81% 30.30 in 10.0 mi WSW 3.5 mph - N/A   Clear
7:51 AM 24.1 °F 19.7 °F 19.9 °F 84% 30.32 in 10.0 mi SW 3.5 mph - N/A   Clear
8:51 AM 28.9 °F - 21.9 °F 75% 30.34 in 10.0 mi Calm Calm - N/A   Clear
9:51 AM 34.0 °F 29.8 °F 24.1 °F 67% 30.34 in 10.0 mi SW 4.6 mph - N/A   Clear
10:51 AM 39.9 °F 35.1 °F 23.0 °F 51% 30.32 in 10.0 mi WSW 6.9 mph - N/A   Clear
11:51 AM 44.1 °F - 24.1 °F 45% 30.30 in 10.0 mi Calm Calm - N/A   Clear
12:51 PM 48.0 °F - 23.0 °F 37% 30.26 in 10.0 mi Calm Calm - N/A   Clear
1:51 PM 50.0 °F - 24.1 °F 36% 30.23 in 10.0 mi Calm Calm - N/A   Clear
2:51 PM 54.0 °F - 25.0 °F 33% 30.22 in 10.0 mi SE 4.6 mph - N/A   Clear
3:51 PM 55.0 °F - 26.1 °F 33% 30.22 in 10.0 mi Calm Calm - N/A   Clear
4:51 PM 54.0 °F - 26.1 °F 34% 30.24 in 10.0 mi Calm Calm - N/A   Clear
5:51 PM 46.9 °F - 28.0 °F 48% 30.27 in 10.0 mi East 6.9 mph - N/A   Clear
6:51 PM 42.1 °F 37.1 °F 28.0 °F 58% 30.31 in 10.0 mi East 8.1 mph - N/A   Clear
7:51 PM 39.9 °F 35.1 °F 28.0 °F 63% 30.35 in 10.0 mi East 6.9 mph - N/A   Clear
8:51 PM 37.0 °F 34.5 °F 28.0 °F 70% 30.38 in 10.0 mi East 3.5 mph - N/A   Clear
9:51 PM 36.0 °F - 28.0 °F 73% 30.40 in 10.0 mi Calm Calm - N/A   Clear
10:51 PM 30.9 °F - 25.0 °F 79% 30.41 in 10.0 mi Calm Calm - N/A   Clear
11:51 PM 32.0 °F 27.5 °F 26.1 °F 79% 30.40 in 10.0 mi North 4.6 mph - N/A   Clear